This demonstration page uses our WeatherBlox Daily Observations layout. Learn more.

Left ArrowRight Arrow

38.89511, -77.03637

Hourly Observations for May 15, 2018

Temp ( °F °C ) Dew Point ( °F °C ) Humidity (%) Winds ( mph kmh ) Pressure ( in mb ) Visibility ( mi km ) Precip ( " mm )
12:52 am 00:52 Mostly Cloudy 67 19.4 63 17.2 87 87 SW 6 9 29.99 1016 10 16 0.00 0.00
1:52 am 01:52 Mostly Cloudy 66 18.9 62 16.7 87 87 SSW 6 9 29.96 1015 10 16 0.00 0.00
2:52 am 02:52 Mostly Cloudy 67 19.4 62 16.7 84 84 W 5 7 29.97 1015 10 16 0.00 0.00
3:15 am 03:15 Cloudy with Thunderstorms 67 19.4 62 16.7 84 84 SW 9 15 29.97 1015 10 16 0.00 0.00
3:52 am 03:52 Cloudy with Thunderstorms 70 21.1 61 16.1 73 73 W 14 22 29.96 1015 10 16 0.00 0.03
4:52 am 04:52 Cloudy with Thunderstorms 71 21.7 62 16.7 73 73 NW 7 11 29.97 1015 10 16 0.00 0.03
5:18 am 05:18 Mostly Cloudy 71 21.7 61 16.1 71 71 SSW 16 26 29.94 1014 10 16 0.00 0.00
5:52 am 05:52 Cloudy 73 22.8 62 16.7 69 69 SSW 12 19 29.95 1014 10 16 0.00 0.00
6:52 am 06:52 Mostly Cloudy 70 21.1 62 16.7 76 76 SSW 12 19 29.95 1014 10 16 0.00 0.00
7:52 am 07:52 Mostly Cloudy 70 21.1 63 17.2 79 79 SSW 15 24 29.95 1014 10 16 0.00 0.00
8:52 am 08:52 Mostly Cloudy 72 22.2 64 17.8 76 76 SSW 12 19 29.95 1014 10 16 0.00 0.00
9:52 am 09:52 Mostly Cloudy 75 23.9 66 18.9 74 74 SSW 13 20 29.95 1014 10 16 0.00 0.00
10:52 am 10:52 Mostly Cloudy 75 23.9 67 19.4 76 76 SSE 13 20 29.94 1014 10 16 0.00 0.00
11:52 am 11:52 Partly Cloudy 77 25 69 20.6 77 77 S 17 28 29.93 1014 10 16 0.00 0.00
12:52 pm 12:52 Mostly Cloudy 81 27.2 70 21.1 69 69 S 12 19 29.91 1013 10 16 0.00 0.00
1:52 pm 13:52 Mostly Cloudy 82 27.8 71 21.7 69 69 S 15 24 29.88 1012 10 16 0.00 0.00
2:52 pm 14:52 Mostly Cloudy 85 29.4 70 21.1 61 61 S 13 20 29.85 1011 10 16 0.00 0.00
3:52 pm 15:52 Mostly Cloudy 89 31.7 70 21.1 53 53 S 16 26 29.83 1010 10 16 0.00 0.00
4:52 pm 16:52 Mostly Cloudy 88 31.1 71 21.7 57 57 S 22 35 29.82 1010 10 16 0.00 0.00
5:52 pm 17:52 Mostly Cloudy 87 30.6 70 21.1 57 57 SSW 21 33 29.81 1010 10 16 0.00 0.00
6:52 pm 18:52 Mostly Cloudy 86 30 69 20.6 57 57 SSW 15 24 29.82 1010 10 16 0.00 0.00
7:52 pm 19:52 Mostly Cloudy 84 28.9 70 21.1 63 63 S 13 20 29.85 1011 10 16 0.00 0.00
8:39 pm 20:39 Mostly Cloudy with Thunderstorms 83 28.3 69 20.6 63 63 S 16 26 29.85 1011 10 16 0.00 0.00
8:52 pm 20:52 Windy with Storms Likely 81 27.2 69 20.6 67 67 WSW 30 48 29.88 1012 10 16 0.00 0.03
8:58 pm 20:58 Windy with Storms Likely 76 24.4 62 16.7 62 62 W 32 52 29.91 1013 10 16 0.00 0.03
9:42 pm 21:42 Windy with Storms Likely 71 21.7 66 18.9 84 84 ENE 21 33 29.94 1014 6 10 0.19 4.83
9:52 pm 21:52 Cloudy with Thunderstorms 70 21.1 66 18.9 87 87 E 15 24 29.96 1015 4 6 0.28 7.11
10:05 pm 22:05 Cloudy with Thunderstorms 71 21.7 66 18.9 84 84 ENE 14 22 29.97 1015 10 16 0.00 0.03
10:52 pm 22:52 Cloudy with Thunderstorms 70 21.1 66 18.9 87 87 NNE 10 17 29.99 1016 6 10 0.11 2.79
11:27 pm 23:27 Cloudy 70 21.1 66 18.9 87 87 NE 10 17 30.00 1016 10 16 0.02 0.51
11:52 pm 23:52 Cloudy 70 21.1 66 18.9 87 87 E 5 7 30.00 1016 10 16 0.02 0.51

Powered by AerisWeather